Location: Unspecified
(42.3650°N, 71.1030°W)
Time: 16:56:20
(UTC+00:00)

Tiros 1 - Pass Details

Date: 03 July 2024
Orbit: 624 x 656 km, 48.4° (Epoch: 13 July)

Event Time Altitude Azimuth Distance (km) Brightness Sun altitude
Rises 01:06:33 0° 243° (WSW) 2,901 10.8 -7.0°
Reaches altitude 10° 01:08:52 10° 244° (WSW) 1,993 10.0 -7.4°
Maximum altitude 01:13:28 85° 334° (NNW) 630 7.2 -8.0°
Drops below altitude 10° 01:18:03 10° 63° (ENE) 1,996 9.5 -8.6°
Sets 01:20:23 0° 64° (ENE) 2,906 10.3 -9.0°
